CW8733 Weather Reports


Display with metric or nautical units.
time (UTC)temp
F
wind
direction
speed
MPH
gust
MPH
rain 1hr
in
rain 24hr
in
rain mn
in
humidity
%
barometer
mb
20260905093656 74 0.0 0.0 0.00 0.00 0.00 69 1025.5
20260905092515 74 0.0 0.0 0.00 0.00 0.00 69 1025.5
20260905091536 74 0.0 1.0 0.00 0.00 0.00 69 1025.5
20260905090517 74 45 2.0 3.0 0.00 0.00 0.00 69 1025.5
20260905085517 74 68 2.0 3.0 0.00 0.00 0.00 69 1025.5
20260905084518 75 68 1.0 2.0 0.00 0.00 0.00 67 1025.5
20260905083517 75 68 1.0 2.0 0.00 0.00 0.00 67 1025.6
20260905082517 76 0.0 0.0 0.00 0.00 0.00 65 1025.8
20260905081517 76 0.0 0.0 0.00 0.00 0.00 64 1025.6
20260905080517 77 0.0 0.0 0.00 0.00 0.00 63 1025.8
20260905075537 77 68 1.0 3.0 0.00 0.00 0.00 63 1026.0
20260905074517 77 0.0 1.0 0.00 0.00 0.00 62 1025.8
20260905073517 77 0.0 0.0 0.00 0.00 0.00 62 1025.7
20260905072537 78 0.0 0.0 0.00 0.00 0.00 61 1025.8
20260905071518 78 0.0 0.0 0.00 0.00 0.00 61 1025.6
20260905070517 78 45 1.0 2.0 0.00 0.00 0.00 60 1025.6
20260905065517 79 0.0 1.0 0.00 0.00 0.00 60 1025.6
20260905064517 79 0.0 0.0 0.00 0.00 0.00 59 1025.6
20260905063517 79 0.0 0.0 0.00 0.00 0.00 59 1025.6
20260905062517 79 0.0 1.0 0.00 0.00 0.00 58 1025.5
20260905061517 79 68 1.0 3.0 0.00 0.00 0.00 58 1025.3
20260905060517 79 0 1.0 2.0 0.00 0.00 0.00 57 1025.3
20260905055517 80 315 2.0 3.0 0.00 0.00 0.00 56 1025.3
20260905054537 80 45 1.0 3.0 0.00 0.00 0.00 55 1025.3
20260905053517 81 0.0 0.0 0.00 0.00 0.00 54 1025.4
20260905052517 81 45 2.0 3.0 0.00 0.00 0.00 53 1025.3
20260905051557 82 45 2.0 3.0 0.00 0.00 0.00 52 1025.1
20260905050517 83 0.0 0.0 0.00 0.00 0.00 50 1025.2
20260905045517 84 0 2.0 3.0 0.00 0.00 0.00 48 1025.2
20260905044537 84 0.0 0.0 0.00 0.00 0.00 48 1025.0
20260905043517 85 158 3.0 5.0 0.00 0.00 0.00 48 1025.1
20260905042517 85 135 5.0 8.0 0.00 0.00 0.00 47 1025.1
20260905041517 85 158 5.0 7.0 0.00 0.00 0.00 46 1024.9
20260905040517 85 158 6.0 9.0 0.00 0.00 0.00 44 1024.9
20260905035517 84 158 4.0 7.0 0.00 0.00 0.00 41 1024.7
20260905034517 83 158 3.0 5.0 0.00 0.00 0.00 41 1024.5
20260905033517 83 158 1.0 3.0 0.00 0.00 0.00 41 1024.3
20260905032517 83 0.0 1.0 0.00 0.00 0.00 41 1024.1
20260905031517 84 135 1.0 2.0 0.00 0.00 0.00 40 1023.8
20260905030537 84 0.0 1.0 0.00 0.00 0.00 40 1023.6
20260905025537 85 0.0 2.0 0.00 0.00 0.00 39 1023.5
20260905024517 86 0.0 1.0 0.00 0.00 0.00 37 1023.4
20260905023517 87 225 1.0 2.0 0.00 0.00 0.00 36 1023.2
20260905022537 88 225 1.0 3.0 0.00 0.00 0.00 34 1023.2
20260905021517 89 225 2.0 3.0 0.00 0.00 0.00 33 1023.0
20260905020517 89 248 2.0 5.0 0.00 0.00 0.00 33 1022.9
20260905015537 90 270 3.0 6.0 0.00 0.00 0.00 33 1022.8
20260905014517 90 270 3.0 6.0 0.00 0.00 0.00 32 1022.8
20260905013517 91 270 5.0 10.0 0.00 0.00 0.00 33 1022.7
20260905012517 91 270 4.0 12.0 0.00 0.00 0.00 32 1022.7
20260905011517 92 270 7.0 12.0 0.00 0.00 0.00 32 1022.9
20260905010557 92 248 6.0 9.0 0.00 0.00 0.00 32 1022.9
20260905005517 92 248 5.0 9.0 0.00 0.00 0.00 32 1022.8
20260905004517 93 270 5.0 10.0 0.00 0.00 0.00 31 1023.0
20260905003517 93 248 6.0 13.0 0.00 0.00 0.00 32 1022.9
20260905002517 93 248 7.0 14.0 0.00 0.00 0.00 31 1022.9
20260905001517 94 248 8.0 12.0 0.00 0.00 0.00 30 1022.8
20260905000517 94 248 9.0 14.0 0.00 0.00 0.00 29 1022.8
20260904235517 95 248 8.0 17.0 0.00 0.00 0.00 28 1022.8
20260904234517 95 270 8.0 14.0 0.00 0.00 0.00 28 1022.9
20260904233537 95 270 8.0 12.0 0.00 0.00 0.00 27 1023.0
20260904232517 95 248 8.0 15.0 0.00 0.00 0.00 28 1023.1
20260904231517 95 270 7.0 14.0 0.00 0.00 0.00 29 1023.0
20260904230517 95 248 9.0 15.0 0.00 0.00 0.00 29 1023.1
20260904225517 95 248 7.0 11.0 0.00 0.00 0.00 30 1023.2
20260904224517 95 248 9.0 16.0 0.00 0.00 0.00 31 1023.1
20260904223517 96 225 8.0 19.0 0.00 0.00 0.00 32 1023.3
20260904222517 96 248 8.0 16.0 0.00 0.00 0.00 31 1023.4
20260904221517 95 248 7.0 15.0 0.00 0.00 0.00 31 1023.3
20260904220517 97 270 8.0 11.0 0.00 0.00 0.00 30 1023.5
20260904215537 97 203 6.0 14.0 0.00 0.00 0.00 30 1023.6
20260904214517 97 225 2.0 7.0 0.00 0.00 0.00 28 1023.9
20260904213517 96 225 4.0 9.0 0.00 0.00 0.00 28 1023.9
20260904212517 95 225 4.0 8.0 0.00 0.00 0.00 30 1024.0
20260904211517 94 248 7.0 13.0 0.00 0.00 0.00 31 1024.1
20260904210517 94 248 6.0 10.0 0.00 0.00 0.00 32 1024.2
20260904205537 94 248 4.0 9.0 0.00 0.00 0.00 32 1024.2
20260904204537 95 315 3.0 6.0 0.00 0.00 0.00 31 1024.4
20260904203517 95 248 4.0 10.0 0.00 0.00 0.00 31 1024.7
20260904202517 95 293 6.0 12.0 0.00 0.00 0.00 33 1024.9
20260904201517 94 293 5.0 9.0 0.00 0.00 0.00 35 1025.0
20260904200517 94 315 3.0 6.0 0.00 0.00 0.00 34 1024.9
20260904195517 93 270 7.0 11.0 0.00 0.00 0.00 36 1025.2
20260904194517 93 293 5.0 9.0 0.00 0.00 0.00 35 1025.4
20260904193517 93 315 5.0 9.0 0.00 0.00 0.00 38 1025.6
20260904192517 92 248 4.0 8.0 0.00 0.00 0.00 38 1025.5
20260904191517 92 248 5.0 10.0 0.00 0.00 0.00 40 1025.8
20260904190517 92 338 1.0 4.0 0.00 0.00 0.00 40 1025.8
20260904185517 92 248 5.0 9.0 0.00 0.00 0.00 41 1025.9
20260904184537 91 338 3.0 5.0 0.00 0.00 0.00 41 1026.1
20260904183517 90 225 3.0 8.0 0.00 0.00 0.00 44 1026.1
20260904182517 90 270 4.0 10.0 0.00 0.00 0.00 44 1026.3
20260904181517 90 225 3.0 9.0 0.00 0.00 0.00 45 1026.6
20260904180517 89 180 2.0 7.0 0.00 0.00 0.00 49 1026.7
20260904175517 88 270 6.0 11.0 0.00 0.00 0.00 49 1026.8
20260904174516 87 270 6.0 11.0 0.00 0.00 0.00 50 1026.9
20260904173517 87 270 5.0 9.0 0.00 0.00 0.00 50 1026.9
20260904172517 87 248 3.0 7.0 0.00 0.00 0.00 51 1027.1
20260904171517 87 270 5.0 9.0 0.00 0.00 0.00 52 1027.2
20260904170517 86 248 3.0 6.0 0.00 0.00 0.00 54 1027.2
20260904165516 85 315 2.0 6.0 0.00 0.00 0.00 56 1027.0
20260904164517 85 225 4.0 7.0 0.00 0.00 0.00 56 1027.1
20260904163516 84 270 5.0 9.0 0.00 0.00 0.00 58 1027.0
20260904162517 83 248 3.0 6.0 0.00 0.00 0.00 59 1026.8
20260904161517 83 248 3.0 6.0 0.00 0.00 0.00 60 1026.9
20260904160517 83 293 4.0 6.0 0.00 0.00 0.00 60 1026.7
20260904155516 83 293 5.0 9.0 0.00 0.00 0.00 61 1026.7
20260904154516 82 270 4.0 10.0 0.00 0.00 0.00 63 1026.8
20260904153516 81 270 4.0 9.0 0.00 0.00 0.00 63 1026.8
20260904152516 81 270 3.0 7.0 0.00 0.00 0.00 64 1026.7
20260904151516 81 270 5.0 10.0 0.00 0.00 0.00 64 1026.8
20260904150516 80 270 4.0 8.0 0.00 0.00 0.00 65 1026.6
20260904145517 79 270 2.0 5.0 0.00 0.00 0.00 67 1026.6
20260904144516 78 248 3.0 5.0 0.00 0.00 0.00 69 1026.6
20260904143557 78 270 3.0 5.0 0.00 0.00 0.00 70 1026.5
20260904142517 77 315 2.0 4.0 0.00 0.00 0.00 72 1026.3
20260904141536 76 45 1.0 3.0 0.00 0.00 0.00 75 1026.2
20260904140516 74 45 1.0 2.0 0.00 0.00 0.00 79 1025.8
20260904135516 73 45 1.0 2.0 0.00 0.00 0.00 81 1025.8
20260904134516 73 0.0 1.0 0.00 0.00 0.00 81 1025.9
20260904133516 72 0.0 1.0 0.00 0.00 0.00 81 1025.5
20260904132516 72 0.0 2.0 0.00 0.00 0.00 81 1025.3
20260904131516 72 0.0 2.0 0.00 0.00 0.00 81 1025.3
20260904130516 72 90 2.0 3.0 0.00 0.00 0.00 80 1025.1
20260904125517 73 0.0 1.0 0.00 0.00 0.00 79 1025.1
20260904124516 73 338 1.0 2.0 0.00 0.00 0.00 78 1025.0
20260904123536 73 293 1.0 2.0 0.00 0.00 0.00 77 1024.8
20260904122516 74 180 1.0 3.0 0.00 0.00 0.00 77 1024.8
20260904121516 74 180 1.0 3.0 0.00 0.00 0.00 77 1024.8
20260904120516 74 158 3.0 4.0 0.00 0.00 0.00 77 1024.7
20260904115516 74 158 1.0 3.0 0.00 0.00 0.00 76 1024.7
20260904114516 74 0.0 0.0 0.00 0.00 0.00 76 1024.7
20260904113517 74 0.0 0.0 0.00 0.00 0.00 76 1024.7
20260904112516 74 0.0 2.0 0.00 0.00 0.00 76 1024.7
20260904111516 75 0.0 1.0 0.00 0.00 0.00 76 1025.1
20260904110536 75 0.0 0.0 0.00 0.00 0.00 76 1025.2
20260904105516 75 0.0 1.0 0.00 0.00 0.00 76 1025.1
20260904104517 75 0.0 1.0 0.00 0.00 0.00 76 1024.9
20260904103516 75 0.0 0.0 0.00 0.00 0.00 76 1024.9
20260904102516 75 0.0 0.0 0.00 0.00 0.00 76 1024.9
20260904101516 75 0.0 0.0 0.00 0.00 0.00 77 1024.9
20260904100516 74 0.0 0.0 0.00 0.00 0.00 76 1024.9
20260904095516 74 0.0 0.0 0.00 0.00 0.00 76 1024.9
20260904094516 74 0.0 1.0 0.00 0.00 0.00 75 1024.8